Time,TemperatureF,DewpointF,PressureIn,WindDirection,WindDirectionDegrees,WindSpeedMPH,WindSpeedGustMPH,Humidity,HourlyPrecipIn,Conditions,Clouds,dailyrainin,SoftwareType,DateUTC
2014-12-20 00:05:00,40.5,40.0,30.19,ENE,61,0.0,0.0,98,0.00,,,0.00,VWS V14.01,2014-12-20 06:05:00,
2014-12-20 00:14:00,40.5,40.0,30.19,ENE,61,0.0,0.0,98,0.00,,,0.00,VWS V14.01,2014-12-20 06:14:00,
2014-12-20 00:19:00,40.5,40.0,30.19,ENE,61,0.0,0.0,98,0.00,,,0.00,VWS V14.01,2014-12-20 06:19:00,
2014-12-20 00:29:00,40.6,40.1,30.19,ENE,61,0.0,0.0,98,0.00,,,0.00,VWS V14.01,2014-12-20 06:29:00,
2014-12-20 00:34:00,40.6,40.1,30.19,ENE,61,0.0,0.0,98,0.00,,,0.00,VWS V14.01,2014-12-20 06:34:00,
2014-12-20 00:39:00,40.6,40.1,30.19,ENE,61,0.0,0.0,98,0.00,,,0.00,VWS V14.01,2014-12-20 06:39:00,
2014-12-20 00:44:00,40.6,40.1,30.19,ENE,61,0.0,0.0,98,0.00,,,0.00,VWS V14.01,2014-12-20 06:44:00,
2014-12-20 00:49:00,40.6,40.1,30.19,ENE,61,0.0,0.0,98,0.00,,,0.00,VWS V14.01,2014-12-20 06:49:00,
2014-12-20 00:59:00,40.6,40.1,30.19,ENE,61,0.0,0.0,98,0.00,,,0.00,VWS V14.01,2014-12-20 06:59:00,
2014-12-20 01:04:00,40.7,40.2,30.19,ENE,61,0.0,0.0,98,0.00,,,0.00,VWS V14.01,2014-12-20 07:04:00,
2014-12-20 01:09:00,40.7,40.2,30.19,ENE,61,0.0,0.0,98,0.00,,,0.00,VWS V14.01,2014-12-20 07:09:00,
2014-12-20 01:14:00,40.7,40.2,30.19,ENE,61,0.0,0.0,98,0.00,,,0.00,VWS V14.01,2014-12-20 07:14:00,
2014-12-20 01:19:00,40.7,40.2,30.18,ENE,61,0.0,0.0,98,0.00,,,0.00,VWS V14.01,2014-12-20 07:19:00,
2014-12-20 01:29:00,40.7,40.2,30.18,ENE,61,0.0,0.0,98,0.00,,,0.00,VWS V14.01,2014-12-20 07:29:00,
2014-12-20 01:39:00,40.8,40.3,30.19,ENE,61,0.0,0.0,98,0.00,,,0.00,VWS V14.01,2014-12-20 07:39:00,
2014-12-20 01:44:00,40.7,40.2,30.19,ENE,61,0.0,0.0,98,0.00,,,0.00,VWS V14.01,2014-12-20 07:44:00,
2014-12-20 01:49:00,40.7,40.2,30.18,ENE,61,0.0,0.0,98,0.00,,,0.00,VWS V14.01,2014-12-20 07:49:00,
2014-12-20 01:54:00,40.7,40.2,30.18,North,5,0.0,0.0,98,0.00,,,0.00,VWS V14.01,2014-12-20 07:54:00,
2014-12-20 02:04:00,40.6,40.1,30.18,North,360,0.0,0.0,98,0.00,,,0.00,VWS V14.01,2014-12-20 08:04:00,
2014-12-20 02:14:00,40.5,40.0,30.18,North,5,0.0,0.0,98,0.00,,,0.00,VWS V14.01,2014-12-20 08:14:00,
2014-12-20 02:19:00,40.5,40.0,30.18,North,360,0.0,0.0,98,0.00,,,0.00,VWS V14.01,2014-12-20 08:19:00,
2014-12-20 02:29:00,40.3,39.8,30.18,North,360,0.0,0.0,98,0.00,,,0.00,VWS V14.01,2014-12-20 08:29:00,
2014-12-20 02:39:00,40.2,39.7,30.20,North,5,1.0,0.0,98,0.01,,,0.01,VWS V14.01,2014-12-20 08:39:00,
2014-12-20 02:44:00,40.2,39.7,30.20,North,360,0.0,0.0,98,0.01,,,0.01,VWS V14.01,2014-12-20 08:44:00,
2014-12-20 02:49:00,40.1,39.6,30.20,North,360,0.0,0.0,98,0.01,,,0.01,VWS V14.01,2014-12-20 08:49:00,
2014-12-20 02:54:00,40.1,39.6,30.20,North,5,0.0,0.0,98,0.01,,,0.01,VWS V14.01,2014-12-20 08:54:00,
2014-12-20 02:59:00,40.1,39.6,30.20,North,5,0.0,0.0,98,0.01,,,0.01,VWS V14.01,2014-12-20 08:59:00,
2014-12-20 03:04:00,40.1,39.6,30.20,North,5,0.0,0.0,98,0.01,,,0.01,VWS V14.01,2014-12-20 09:04:00,
2014-12-20 03:14:00,40.0,39.5,30.20,North,5,0.0,0.0,98,0.01,,,0.01,VWS V14.01,2014-12-20 09:14:00,
2014-12-20 03:19:00,40.0,39.5,30.19,North,360,0.0,0.0,98,0.01,,,0.01,VWS V14.01,2014-12-20 09:19:00,
2014-12-20 03:29:00,39.9,39.4,30.19,North,5,0.0,0.0,98,0.01,,,0.01,VWS V14.01,2014-12-20 09:29:00,
2014-12-20 03:39:00,39.9,39.4,30.20,North,5,0.0,0.0,98,0.01,,,0.01,VWS V14.01,2014-12-20 09:39:00,
2014-12-20 03:44:00,39.9,39.4,30.20,North,5,0.0,0.0,98,0.00,,,0.01,VWS V14.01,2014-12-20 09:44:00,
2014-12-20 03:49:00,39.8,39.3,30.20,North,5,0.0,0.0,98,0.00,,,0.01,VWS V14.01,2014-12-20 09:49:00,
2014-12-20 03:54:00,39.8,39.3,30.20,North,360,0.0,0.0,98,0.00,,,0.01,VWS V14.01,2014-12-20 09:54:00,
2014-12-20 03:59:00,39.8,39.3,30.20,North,360,0.0,0.0,98,0.00,,,0.01,VWS V14.01,2014-12-20 09:59:00,
2014-12-20 04:09:00,39.8,39.3,30.20,North,5,0.0,0.0,98,0.00,,,0.01,VWS V14.01,2014-12-20 10:09:00,
2014-12-20 04:14:00,39.9,39.4,30.20,North,5,0.0,0.0,98,0.00,,,0.01,VWS V14.01,2014-12-20 10:14:00,
2014-12-20 04:19:00,39.8,39.3,30.20,North,5,0.0,0.0,98,0.00,,,0.01,VWS V14.01,2014-12-20 10:19:00,
2014-12-20 04:24:00,39.8,39.3,30.20,North,5,0.0,0.0,98,0.00,,,0.01,VWS V14.01,2014-12-20 10:24:00,
2014-12-20 04:29:00,39.8,39.3,30.20,North,360,0.0,0.0,98,0.00,,,0.01,VWS V14.01,2014-12-20 10:29:00,
2014-12-20 04:34:00,39.8,39.3,30.20,North,360,0.0,0.0,98,0.00,,,0.01,VWS V14.01,2014-12-20 10:34:00,
2014-12-20 04:39:00,39.8,39.3,30.20,North,5,0.0,0.0,98,0.00,,,0.01,VWS V14.01,2014-12-20 10:39:00,
2014-12-20 04:44:00,39.8,39.3,30.20,North,5,0.0,0.0,98,0.00,,,0.01,VWS V14.01,2014-12-20 10:44:00,
2014-12-20 04:49:00,39.8,39.3,30.20,North,5,0.0,0.0,98,0.00,,,0.01,VWS V14.01,2014-12-20 10:49:00,
2014-12-20 04:59:00,39.8,39.3,30.20,North,360,1.0,0.0,98,0.00,,,0.01,VWS V14.01,2014-12-20 10:59:00,
2014-12-20 05:04:00,39.7,39.2,30.20,North,5,0.0,0.0,98,0.00,,,0.01,VWS V14.01,2014-12-20 11:04:00,
2014-12-20 05:09:00,39.7,39.2,30.20,North,5,0.0,0.0,98,0.00,,,0.01,VWS V14.01,2014-12-20 11:09:00,
2014-12-20 05:14:00,39.8,39.3,30.20,North,5,0.0,0.0,98,0.00,,,0.01,VWS V14.01,2014-12-20 11:14:00,
2014-12-20 05:19:00,39.8,39.3,30.21,North,5,0.0,0.0,98,0.00,,,0.01,VWS V14.01,2014-12-20 11:19:00,
2014-12-20 05:24:00,39.8,39.3,30.21,North,5,1.0,0.0,98,0.00,,,0.01,VWS V14.01,2014-12-20 11:24:00,
2014-12-20 05:29:00,39.8,39.3,30.21,North,360,0.0,0.0,98,0.00,,,0.01,VWS V14.01,2014-12-20 11:29:00,
2014-12-20 05:34:00,39.7,39.2,30.20,North,360,0.0,0.0,98,0.00,,,0.01,VWS V14.01,2014-12-20 11:34:00,
2014-12-20 05:39:00,39.8,39.3,30.20,North,5,0.0,0.0,98,0.00,,,0.01,VWS V14.01,2014-12-20 11:39:00,
2014-12-20 05:44:00,39.8,39.3,30.20,North,360,0.0,0.0,98,0.00,,,0.01,VWS V14.01,2014-12-20 11:44:00,
2014-12-20 05:54:00,39.8,39.3,30.21,North,360,0.0,0.0,98,0.00,,,0.01,VWS V14.01,2014-12-20 11:54:00,
2014-12-20 05:59:00,39.7,39.2,30.21,North,5,0.0,0.0,98,0.00,,,0.01,VWS V14.01,2014-12-20 11:59:00,
2014-12-20 06:04:00,39.7,39.2,30.21,North,5,0.0,0.0,98,0.00,,,0.01,VWS V14.01,2014-12-20 12:04:00,
2014-12-20 06:14:00,39.7,39.2,30.21,North,360,0.0,0.0,98,0.00,,,0.01,VWS V14.01,2014-12-20 12:14:00,
2014-12-20 06:19:00,39.6,39.1,30.22,North,5,0.0,0.0,98,0.00,,,0.01,VWS V14.01,2014-12-20 12:19:00,
2014-12-20 06:24:00,39.6,39.1,30.22,North,5,0.0,0.0,98,0.00,,,0.01,VWS V14.01,2014-12-20 12:24:00,
2014-12-20 06:29:00,39.6,39.1,30.22,North,360,0.0,0.0,98,0.00,,,0.01,VWS V14.01,2014-12-20 12:29:00,
2014-12-20 06:34:00,39.6,39.1,30.22,North,5,0.0,0.0,98,0.00,,,0.01,VWS V14.01,2014-12-20 12:34:00,
2014-12-20 06:39:00,39.5,39.0,30.22,North,5,0.0,0.0,98,0.00,,,0.01,VWS V14.01,2014-12-20 12:39:00,
2014-12-20 06:44:00,39.5,39.0,30.22,North,360,0.0,0.0,98,0.00,,,0.01,VWS V14.01,2014-12-20 12:44:00,
2014-12-20 06:49:00,39.5,39.0,30.22,North,360,0.0,0.0,98,0.00,,,0.01,VWS V14.01,2014-12-20 12:49:00,
2014-12-20 06:59:00,39.5,39.0,30.22,North,5,0.0,0.0,98,0.00,,,0.01,VWS V14.01,2014-12-20 12:59:00,
2014-12-20 07:04:00,39.5,39.0,30.22,North,360,0.0,0.0,98,0.00,,,0.01,VWS V14.01,2014-12-20 13:04:00,
2014-12-20 07:09:00,39.4,38.9,30.22,North,5,0.0,0.0,98,0.00,,,0.01,VWS V14.01,2014-12-20 13:09:00,
2014-12-20 07:19:00,39.5,39.0,30.22,North,5,0.0,0.0,98,0.00,,,0.01,VWS V14.01,2014-12-20 13:19:00,
2014-12-20 07:24:00,39.4,38.9,30.22,North,360,0.0,0.0,98,0.00,,,0.01,VWS V14.01,2014-12-20 13:24:00,
2014-12-20 07:29:00,39.5,39.0,30.22,North,5,0.0,0.0,98,0.00,,,0.01,VWS V14.01,2014-12-20 13:29:00,
2014-12-20 07:34:00,39.5,39.0,30.23,North,5,0.0,0.0,98,0.00,,,0.01,VWS V14.01,2014-12-20 13:34:00,
2014-12-20 07:39:00,39.6,39.1,30.23,North,5,0.0,0.0,98,0.00,,,0.01,VWS V14.01,2014-12-20 13:39:00,
2014-12-20 07:44:00,39.6,39.1,30.23,North,360,0.0,0.0,98,0.00,,,0.01,VWS V14.01,2014-12-20 13:44:00,
2014-12-20 07:49:00,39.5,39.0,30.23,North,5,1.0,0.0,98,0.00,,,0.01,VWS V14.01,2014-12-20 13:49:00,
2014-12-20 07:59:00,39.5,39.0,30.23,North,360,0.0,0.0,98,0.00,,,0.01,VWS V14.01,2014-12-20 13:59:00,
2014-12-20 08:04:00,39.5,39.0,30.23,North,360,0.0,0.0,98,0.00,,,0.01,VWS V14.01,2014-12-20 14:04:00,
2014-12-20 08:09:00,39.4,38.9,30.23,WSW,250,0.0,0.0,98,0.00,,,0.01,VWS V14.01,2014-12-20 14:09:00,
2014-12-20 08:14:00,39.4,38.9,30.23,WSW,250,0.0,0.0,98,0.00,,,0.01,VWS V14.01,2014-12-20 14:14:00,
2014-12-20 08:24:00,39.5,39.0,30.24,WSW,250,0.0,0.0,98,0.00,,,0.01,VWS V14.01,2014-12-20 14:24:00,
2014-12-20 08:39:00,39.5,39.0,30.24,WSW,250,0.0,0.0,98,0.00,,,0.01,VWS V14.01,2014-12-20 14:39:00,
2014-12-20 08:49:00,39.5,39.0,30.23,WSW,250,0.0,0.0,98,0.00,,,0.01,VWS V14.01,2014-12-20 14:49:00,
2014-12-20 08:54:00,39.5,39.0,30.23,WSW,250,0.0,0.0,98,0.00,,,0.01,VWS V14.01,2014-12-20 14:54:00,
2014-12-20 08:59:00,39.7,39.2,30.23,WSW,250,0.0,0.0,98,0.00,,,0.01,VWS V14.01,2014-12-20 14:59:00,
2014-12-20 09:04:00,39.7,39.2,30.23,WSW,250,0.0,0.0,98,0.00,,,0.01,VWS V14.01,2014-12-20 15:04:00,
2014-12-20 09:14:00,39.7,39.2,30.23,WSW,249,0.0,0.0,98,0.00,,,0.01,VWS V14.01,2014-12-20 15:14:00,
2014-12-20 09:24:00,39.8,39.0,30.24,WSW,250,0.0,0.0,97,0.00,,,0.01,VWS V14.01,2014-12-20 15:24:00,
2014-12-20 09:29:00,39.9,39.1,30.24,WSW,250,0.0,0.0,97,0.00,,,0.01,VWS V14.01,2014-12-20 15:29:00,
2014-12-20 09:34:00,39.9,39.1,30.24,WSW,250,0.0,0.0,97,0.00,,,0.01,VWS V14.01,2014-12-20 15:34:00,
2014-12-20 09:39:00,40.0,39.0,30.24,SW,215,0.0,0.0,96,0.00,,,0.01,VWS V14.01,2014-12-20 15:39:00,
2014-12-20 09:49:00,40.2,39.2,30.24,SW,215,0.0,0.0,96,0.00,,,0.01,VWS V14.01,2014-12-20 15:49:00,
2014-12-20 09:59:00,40.4,39.3,30.24,SW,217,0.0,0.0,96,0.00,,,0.01,VWS V14.01,2014-12-20 15:59:00,
2014-12-20 10:09:00,40.4,39.3,30.24,SW,217,0.0,0.0,96,0.00,,,0.01,VWS V14.01,2014-12-20 16:09:00,
2014-12-20 10:19:00,40.4,39.3,30.24,SW,217,0.0,0.0,96,0.00,,,0.01,VWS V14.01,2014-12-20 16:19:00,
2014-12-20 10:24:00,40.5,39.5,30.24,SW,217,0.0,0.0,96,0.00,,,0.01,VWS V14.01,2014-12-20 16:24:00,
2014-12-20 10:34:00,40.7,39.7,30.24,SW,221,0.0,0.0,96,0.00,,,0.01,VWS V14.01,2014-12-20 16:34:00,
2014-12-20 10:39:00,40.7,39.7,30.24,SW,221,0.0,0.0,96,0.00,,,0.01,VWS V14.01,2014-12-20 16:39:00,
2014-12-20 10:44:00,40.8,39.8,30.24,SW,221,0.0,0.0,96,0.00,,,0.01,VWS V14.01,2014-12-20 16:44:00,
2014-12-20 10:49:00,40.9,39.8,30.23,SW,221,0.0,0.0,96,0.00,,,0.01,VWS V14.01,2014-12-20 16:49:00,
2014-12-20 10:54:00,41.1,40.3,30.23,SW,221,0.0,0.0,97,0.00,,,0.01,VWS V14.01,2014-12-20 16:54:00,
2014-12-20 10:59:00,41.3,40.2,30.23,SW,221,0.0,0.0,96,0.00,,,0.01,VWS V14.01,2014-12-20 16:59:00,
2014-12-20 11:04:00,41.6,40.5,30.23,SW,222,0.0,0.0,96,0.00,,,0.01,VWS V14.01,2014-12-20 17:04:00,
2014-12-20 11:09:00,41.8,40.8,30.23,SW,222,0.0,0.0,96,0.00,,,0.01,VWS V14.01,2014-12-20 17:09:00,
2014-12-20 11:14:00,41.9,40.6,30.23,SW,223,0.0,0.0,95,0.00,,,0.01,VWS V14.01,2014-12-20 17:14:00,
2014-12-20 11:24:00,41.7,39.8,30.22,SW,225,0.0,0.0,93,0.00,,,0.01,VWS V14.01,2014-12-20 17:24:00,
2014-12-20 11:29:00,41.8,39.9,30.22,SW,225,0.0,0.0,93,0.00,,,0.01,VWS V14.01,2014-12-20 17:29:00,
2014-12-20 11:34:00,42.0,39.6,30.22,SW,225,0.0,0.0,91,0.00,,,0.01,VWS V14.01,2014-12-20 17:34:00,
2014-12-20 11:39:00,42.0,39.3,30.22,SW,225,0.0,0.0,90,0.00,,,0.01,VWS V14.01,2014-12-20 17:39:00,
2014-12-20 11:44:00,42.1,40.0,30.22,SW,225,0.0,0.0,92,0.00,,,0.01,VWS V14.01,2014-12-20 17:44:00,
2014-12-20 11:49:00,42.3,39.9,30.21,SW,225,0.0,0.0,91,0.00,,,0.01,VWS V14.01,2014-12-20 17:49:00,
2014-12-20 11:54:00,42.5,39.8,30.21,SW,225,0.0,0.0,90,0.00,,,0.01,VWS V14.01,2014-12-20 17:54:00,
2014-12-20 11:59:00,42.6,40.4,30.21,SW,223,0.0,0.0,92,0.00,,,0.01,VWS V14.01,2014-12-20 17:59:00,
2014-12-20 12:04:00,42.4,39.7,30.21,SW,223,0.0,0.0,90,0.00,,,0.01,VWS V14.01,2014-12-20 18:04:00,
2014-12-20 12:14:00,42.3,39.3,30.21,SW,223,0.0,0.0,89,0.00,,,0.01,VWS V14.01,2014-12-20 18:14:00,
2014-12-20 12:19:00,42.4,39.1,30.20,SW,223,2.0,0.0,88,0.00,,,0.01,VWS V14.01,2014-12-20 18:19:00,
2014-12-20 12:24:00,42.5,39.2,30.20,SW,223,0.0,0.0,88,0.00,,,0.01,VWS V14.01,2014-12-20 18:24:00,
2014-12-20 12:34:00,42.7,39.7,30.20,SW,224,0.0,0.0,89,0.00,,,0.01,VWS V14.01,2014-12-20 18:34:00,
2014-12-20 12:44:00,43.0,40.0,30.20,SW,223,0.0,0.0,89,0.00,,,0.01,VWS V14.01,2014-12-20 18:44:00,
2014-12-20 12:49:00,43.1,39.5,30.19,SW,223,0.0,0.0,87,0.00,,,0.01,VWS V14.01,2014-12-20 18:49:00,
2014-12-20 12:55:00,43.1,39.2,30.19,SW,222,1.0,0.0,86,0.00,,,0.01,VWS V14.01,2014-12-20 18:55:00,
2014-12-20 13:04:00,43.1,39.2,30.19,South,186,0.0,0.0,86,0.00,,,0.01,VWS V14.01,2014-12-20 19:04:00,
2014-12-20 13:09:00,43.2,39.3,30.19,South,187,0.0,0.0,86,0.00,,,0.01,VWS V14.01,2014-12-20 19:09:00,
2014-12-20 13:19:00,43.5,39.3,30.18,SSW,198,4.0,0.0,85,0.00,,,0.01,VWS V14.01,2014-12-20 19:19:00,
2014-12-20 13:29:00,43.4,39.8,30.18,SSE,149,2.0,0.0,87,0.00,,,0.01,VWS V14.01,2014-12-20 19:29:00,
2014-12-20 13:34:00,43.5,39.6,30.18,SW,227,0.0,0.0,86,0.00,,,0.01,VWS V14.01,2014-12-20 19:34:00,
2014-12-20 13:44:00,43.5,39.6,30.18,SW,227,1.0,0.0,86,0.00,,,0.01,VWS V14.01,2014-12-20 19:44:00,
2014-12-20 13:49:00,43.7,39.5,30.18,SW,227,0.0,0.0,85,0.00,,,0.01,VWS V14.01,2014-12-20 19:49:00,
2014-12-20 13:54:00,43.9,39.7,30.18,SW,234,1.0,0.0,85,0.00,,,0.01,VWS V14.01,2014-12-20 19:54:00,
2014-12-20 13:59:00,44.1,39.9,30.18,SW,235,0.0,0.0,85,0.00,,,0.01,VWS V14.01,2014-12-20 19:59:00,
2014-12-20 14:04:00,44.1,39.9,30.18,SW,224,1.0,0.0,85,0.00,,,0.01,VWS V14.01,2014-12-20 20:04:00,
2014-12-20 14:09:00,43.9,39.1,30.18,South,173,1.0,0.0,83,0.00,,,0.01,VWS V14.01,2014-12-20 20:09:00,
2014-12-20 14:14:00,43.9,39.7,30.18,South,182,2.0,0.0,85,0.00,,,0.01,VWS V14.01,2014-12-20 20:14:00,
2014-12-20 14:19:00,43.8,39.6,30.17,SSE,157,2.0,0.0,85,0.00,,,0.01,VWS V14.01,2014-12-20 20:19:00,
2014-12-20 14:24:00,43.8,39.0,30.17,SSE,157,2.0,0.0,83,0.00,,,0.01,VWS V14.01,2014-12-20 20:24:00,
2014-12-20 14:29:00,43.7,39.5,30.17,SSE,156,0.0,0.0,85,0.00,,,0.01,VWS V14.01,2014-12-20 20:29:00,
2014-12-20 14:34:00,43.8,39.6,30.17,SSE,157,0.0,0.0,85,0.00,,,0.01,VWS V14.01,2014-12-20 20:34:00,
2014-12-20 14:39:00,43.9,39.4,30.17,SSE,157,2.0,0.0,84,0.00,,,0.01,VWS V14.01,2014-12-20 20:39:00,
2014-12-20 14:49:00,44.2,39.7,30.17,SSE,156,2.0,0.0,84,0.00,,,0.01,VWS V14.01,2014-12-20 20:49:00,
2014-12-20 14:55:00,44.2,39.1,30.17,SSE,156,2.0,0.0,82,0.00,,,0.01,VWS V14.01,2014-12-20 20:55:00,
2014-12-20 15:04:00,44.0,38.9,30.17,SSE,161,2.0,0.0,82,0.00,,,0.01,VWS V14.01,2014-12-20 21:04:00,
2014-12-20 15:09:00,44.1,39.0,30.17,South,178,0.0,0.0,82,0.00,,,0.01,VWS V14.01,2014-12-20 21:09:00,
2014-12-20 15:19:00,44.0,38.5,30.17,South,178,0.0,0.0,81,0.00,,,0.01,VWS V14.01,2014-12-20 21:19:00,
2014-12-20 15:24:00,44.1,39.0,30.17,South,178,0.0,0.0,82,0.00,,,0.01,VWS V14.01,2014-12-20 21:24:00,
2014-12-20 15:34:00,44.0,38.5,30.18,SSE,150,0.0,0.0,81,0.00,,,0.01,VWS V14.01,2014-12-20 21:34:00,
2014-12-20 15:44:00,43.8,38.4,30.18,SW,218,1.0,0.0,81,0.00,,,0.01,VWS V14.01,2014-12-20 21:44:00,
2014-12-20 15:49:00,43.8,38.4,30.18,SW,215,0.0,0.0,81,0.00,,,0.01,VWS V14.01,2014-12-20 21:49:00,
2014-12-20 15:59:00,43.6,38.2,30.18,SSE,163,0.0,0.0,81,0.00,,,0.01,VWS V14.01,2014-12-20 21:59:00,
2014-12-20 16:04:00,43.6,38.5,30.17,SSE,167,2.0,0.0,82,0.00,,,0.01,VWS V14.01,2014-12-20 22:04:00,
2014-12-20 16:14:00,43.5,38.4,30.17,SSE,155,0.0,0.0,82,0.00,,,0.01,VWS V14.01,2014-12-20 22:14:00,
2014-12-20 16:19:00,43.5,38.7,30.18,SSE,155,0.0,0.0,83,0.00,,,0.01,VWS V14.01,2014-12-20 22:19:00,
2014-12-20 16:24:00,43.4,38.6,30.18,SSE,156,2.0,0.0,83,0.00,,,0.01,VWS V14.01,2014-12-20 22:24:00,
2014-12-20 16:34:00,43.3,38.8,30.18,SSE,156,0.0,0.0,84,0.00,,,0.01,VWS V14.01,2014-12-20 22:34:00,
2014-12-20 16:44:00,43.0,38.2,30.18,South,173,0.0,0.0,83,0.00,,,0.01,VWS V14.01,2014-12-20 22:44:00,
2014-12-20 16:49:00,42.9,37.8,30.18,WSW,248,0.0,0.0,82,0.00,,,0.01,VWS V14.01,2014-12-20 22:49:00,
2014-12-20 16:54:00,42.8,37.7,30.18,SSE,151,0.0,0.0,82,0.00,,,0.01,VWS V14.01,2014-12-20 22:54:00,
2014-12-20 17:04:00,42.7,37.9,30.18,SSE,149,0.0,0.0,83,0.00,,,0.01,VWS V14.01,2014-12-20 23:04:00,
2014-12-20 17:09:00,42.7,38.2,30.18,SSE,149,1.0,0.0,84,0.00,,,0.01,VWS V14.01,2014-12-20 23:09:00,
2014-12-20 17:14:00,42.6,37.8,30.18,SSE,149,0.0,0.0,83,0.00,,,0.01,VWS V14.01,2014-12-20 23:14:00,
2014-12-20 17:19:00,42.6,37.8,30.18,SSW,207,0.0,0.0,83,0.00,,,0.01,VWS V14.01,2014-12-20 23:19:00,
2014-12-20 17:24:00,42.5,37.7,30.18,South,183,2.0,0.0,83,0.00,,,0.01,VWS V14.01,2014-12-20 23:24:00,
2014-12-20 17:29:00,42.5,37.7,30.18,South,183,0.0,0.0,83,0.00,,,0.01,VWS V14.01,2014-12-20 23:29:00,
2014-12-20 17:34:00,42.5,38.3,30.18,South,183,0.0,0.0,85,0.00,,,0.01,VWS V14.01,2014-12-20 23:34:00,
2014-12-20 17:39:00,42.4,37.6,30.18,SW,232,3.0,0.0,83,0.00,,,0.01,VWS V14.01,2014-12-20 23:39:00,
2014-12-20 17:44:00,42.4,37.6,30.18,South,173,0.0,0.0,83,0.00,,,0.01,VWS V14.01,2014-12-20 23:44:00,
2014-12-20 17:49:00,42.3,37.8,30.18,South,173,0.0,0.0,84,0.00,,,0.01,VWS V14.01,2014-12-20 23:49:00,
2014-12-20 17:54:00,42.3,37.8,30.18,South,173,0.0,0.0,84,0.00,,,0.01,VWS V14.01,2014-12-20 23:54:00,
2014-12-20 17:59:00,42.3,37.8,30.18,SW,217,1.0,0.0,84,0.00,,,0.01,VWS V14.01,2014-12-20 23:59:00,
2014-12-20 18:04:00,42.3,37.8,30.18,SW,221,2.0,0.0,84,0.00,,,0.01,VWS V14.01,2014-12-21 00:04:00,
2014-12-20 18:09:00,42.3,37.5,30.18,South,185,1.0,0.0,83,0.00,,,0.01,VWS V14.01,2014-12-21 00:09:00,
2014-12-20 18:19:00,42.3,38.1,30.18,South,184,1.0,0.0,85,0.00,,,0.01,VWS V14.01,2014-12-21 00:19:00,
2014-12-20 18:24:00,42.3,38.1,30.18,South,184,1.0,0.0,85,0.00,,,0.01,VWS V14.01,2014-12-21 00:24:00,
2014-12-20 18:29:00,42.2,37.7,30.18,SSE,157,1.0,0.0,84,0.00,,,0.01,VWS V14.01,2014-12-21 00:29:00,
2014-12-20 18:34:00,42.2,37.7,30.18,SSE,168,2.0,0.0,84,0.00,,,0.01,VWS V14.01,2014-12-21 00:34:00,
2014-12-20 18:39:00,42.0,37.2,30.18,SSW,210,1.0,0.0,83,0.00,,,0.01,VWS V14.01,2014-12-21 00:39:00,